When you browse on this site, cookies collect data to enhance your experience and personalize the content and advertising you see.
Visit our Privacy Policy to learn more. By continuing to use the site, you agree to this use of cookies and data.
  • en France
  • Liste des pays
  • À 7 jours
  • Température de l'eau
  • Carte satellitaire
  • Carte météo
  • Widgets météo
  • user-avatar
    Se connecter

    Météo par heure à Baraki Barak

    Ce jour, 17 Novembre, Samedi

    Heure Température Précipitation Vent Pression Humidité
    00:00 +7°C° 0 mm 2 m/s 597 mmHg 46%
    01:00 +7°C° 0 mm 2 m/s 597 mmHg 48%
    02:00 +6°C° 0 mm 2 m/s 596 mmHg 49%
    03:00 +6°C° 0 mm 2 m/s 596 mmHg 50%
    04:00 +6°C° 0 mm 2 m/s 596 mmHg 51%
    05:00 +5°C° 0 mm 2 m/s 596 mmHg 52%
    06:00 +6°C° 0 mm 2 m/s 596 mmHg 51%
    07:00 +6°C° 0 mm 2 m/s 596 mmHg 49%
    08:00 +7°C° 0 mm 2 m/s 597 mmHg 48%
    09:00 +8°C° 0 mm 2 m/s 597 mmHg 43%
    10:00 +10°C° 0 mm 2 m/s 597 mmHg 38%
    11:00 +13°C° 0 mm 2 m/s 598 mmHg 34%
    12:00 +14°C° 0 mm 2 m/s 598 mmHg 33%
    13:00 +15°C° 0 mm 2 m/s 598 mmHg 33%
    14:00 +15°C° 0 mm 2 m/s 597 mmHg 32%
    15:00 +15°C° 0 mm 2 m/s 597 mmHg 34%
    16:00 +14°C° 0 mm 2 m/s 597 mmHg 36%
    17:00 +14°C° 0 mm 2 m/s 597 mmHg 38%
    18:00 +13°C° 0 mm 2 m/s 597 mmHg 41%
    19:00 +12°C° 0 mm 2 m/s 596 mmHg 44%
    20:00 +11°C° 0 mm 1 m/s 596 mmHg 47%
    21:00 +10°C° 0 mm 1 m/s 596 mmHg 49%
    22:00 +10°C° 0 mm 1 m/s 596 mmHg 51%
    23:00 +9°C° 0 mm 1 m/s 596 mmHg 52%

    Demain, 18 Novembre, Dimanche

    Heure Température Précipitation Vent Pression Humidité
    00:00 +9°C° 0 mm 1 m/s 596 mmHg 54%
    01:00 +8°C° 0 mm 1 m/s 595 mmHg 56%
    02:00 +8°C° 0 mm 1 m/s 595 mmHg 57%
    03:00 +7°C° 0 mm 1 m/s 595 mmHg 59%
    04:00 +7°C° 0 mm 1 m/s 595 mmHg 61%
    05:00 +6°C° 0 mm 1 m/s 595 mmHg 62%
    06:00 +7°C° 0 mm 1 m/s 595 mmHg 61%
    07:00 +7°C° 0 mm 1 m/s 596 mmHg 60%
    08:00 +8°C° 0 mm 1 m/s 596 mmHg 59%
    09:00 +9°C° 0 mm 1 m/s 597 mmHg 54%
    10:00 +9°C° 0 mm 0 m/s 597 mmHg 49%
    11:00 +11°C° 0 mm 0 m/s 598 mmHg 44%
    12:00 +12°C° 0 mm 1 m/s 598 mmHg 42%
    13:00 +13°C° 0 mm 1 m/s 598 mmHg 39%
    14:00 +14°C° 0 mm 1 m/s 598 mmHg 37%
    15:00 +13°C° 0 mm 1 m/s 597 mmHg 38%
    16:00 +13°C° 0 mm 1 m/s 597 mmHg 39%
    17:00 +13°C° 0 mm 2 m/s 597 mmHg 40%
    18:00 +12°C° 0 mm 2 m/s 597 mmHg 43%
    19:00 +10°C° 0 mm 2 m/s 598 mmHg 46%
    20:00 +9°C° 0 mm 2 m/s 598 mmHg 49%
    21:00 +8°C° 0 mm 2 m/s 598 mmHg 51%
    22:00 +9°C° 0 mm 1 m/s 597 mmHg 53%
    23:00 +8°C° 0 mm 1 m/s 597 mmHg 55%

    Après-demain, 19 Novembre, Lundi

    Heure Température Précipitation Vent Pression Humidité
    00:00 +8°C° 0 mm 1 m/s 597 mmHg 56%
    01:00 +7°C° 0 mm 1 m/s 597 mmHg 58%
    02:00 +7°C° 0 mm 1 m/s 597 mmHg 59%
    03:00 +6°C° 0 mm 1 m/s 596 mmHg 61%
    04:00 +6°C° 0 mm 1 m/s 596 mmHg 62%
    05:00 +5°C° 0 mm 1 m/s 596 mmHg 64%
    06:00 +6°C° 0 mm 1 m/s 596 mmHg 62%
    07:00 +5°C° 0 mm 0 m/s 597 mmHg 60%
    08:00 +5°C° 0 mm 0 m/s 597 mmHg 58%
    09:00 +7°C° 0 mm 0 m/s 598 mmHg 54%
    10:00 +9°C° 0 mm 1 m/s 599 mmHg 50%
    11:00 +10°C° 0 mm 1 m/s 599 mmHg 46%
    12:00 +11°C° 0 mm 1 m/s 599 mmHg 44%
    13:00 +11°C° 0 mm 1 m/s 599 mmHg 42%
    14:00 +12°C° 0 mm 1 m/s 599 mmHg 39%
    15:00 +12°C° 0 mm 1 m/s 599 mmHg 40%
    16:00 +12°C° 0 mm 1 m/s 599 mmHg 41%
    17:00 +10°C° 0 mm 2 m/s 599 mmHg 41%
    18:00 +10°C° 0 mm 1 m/s 599 mmHg 44%
    19:00 +9°C° 0 mm 1 m/s 599 mmHg 47%
    20:00 +8°C° 0 mm 1 m/s 599 mmHg 50%
    21:00 +8°C° 0 mm 1 m/s 599 mmHg 51%
    22:00 +7°C° 0 mm 1 m/s 599 mmHg 53%
    23:00 +7°C° 0 mm 1 m/s 599 mmHg 54%

    20 Novembre, Mardi

    Heure Température Précipitation Vent Pression Humidité
    00:00 +5°C° 0 mm 0 m/s 599 mmHg 54%
    01:00 +5°C° 0 mm 0 m/s 598 mmHg 55%
    02:00 +5°C° 0 mm 0 m/s 598 mmHg 56%
    03:00 +4°C° 0 mm 0 m/s 598 mmHg 57%
    04:00 +4°C° 0 mm 0 m/s 598 mmHg 57%
    05:00 +4°C° 0 mm 0 m/s 597 mmHg 58%
    06:00 +4°C° 0 mm 0 m/s 598 mmHg 56%
    07:00 +4°C° 0 mm 0 m/s 598 mmHg 55%
    08:00 +6°C° 0 mm 1 m/s 599 mmHg 53%
    09:00 +7°C° 0 mm 1 m/s 600 mmHg 46%
    10:00 +9°C° 0 mm 1 m/s 600 mmHg 40%
    11:00 +11°C° 0 mm 1 m/s 601 mmHg 33%
    12:00 +11°C° 0 mm 1 m/s 601 mmHg 30%
    13:00 +12°C° 0 mm 2 m/s 600 mmHg 26%
    14:00 +13°C° 0 mm 2 m/s 600 mmHg 23%
    15:00 +12°C° 0 mm 2 m/s 600 mmHg 24%
    16:00 +12°C° 0 mm 2 m/s 599 mmHg 25%
    17:00 +10°C° 0 mm 2 m/s 599 mmHg 26%
    18:00 +10°C° 0 mm 1 m/s 599 mmHg 29%
    19:00 +9°C° 0 mm 1 m/s 599 mmHg 31%
    20:00 +8°C° 0 mm 1 m/s 599 mmHg 33%
    21:00 +8°C° 0 mm 1 m/s 599 mmHg 34%
    22:00 +8°C° 0 mm 1 m/s 599 mmHg 35%
    23:00 +7°C° 0 mm 1 m/s 599 mmHg 35%

    21 Novembre, Mercredi

    Heure Température Précipitation Vent Pression Humidité
    00:00 +7°C° 0 mm 1 m/s 598 mmHg 36%
    01:00 +6°C° 0 mm 1 m/s 598 mmHg 38%
    02:00 +6°C° 0 mm 1 m/s 597 mmHg 39%
    03:00 +6°C° 0 mm 1 m/s 597 mmHg 40%
    04:00 +5°C° 0 mm 1 m/s 597 mmHg 40%
    05:00 +5°C° 0 mm 1 m/s 596 mmHg 41%
    06:00 +5°C° 0 mm 1 m/s 597 mmHg 40%
    07:00 +6°C° 0 mm 1 m/s 597 mmHg 39%
    08:00 +6°C° 0 mm 1 m/s 598 mmHg 37%
    09:00 +8°C° 0 mm 1 m/s 598 mmHg 33%
    10:00 +10°C° 0 mm 1 m/s 599 mmHg 28%
    11:00 +11°C° 0 mm 1 m/s 600 mmHg 23%
    12:00 +12°C° 0 mm 1 m/s 599 mmHg 22%
    13:00 +12°C° 0 mm 1 m/s 599 mmHg 21%
    14:00 +13°C° 0 mm 2 m/s 599 mmHg 20%
    15:00 +12°C° 0 mm 2 m/s 598 mmHg 24%
    16:00 +12°C° 0 mm 2 m/s 598 mmHg 28%
    17:00 +10°C° 0 mm 2 m/s 598 mmHg 32%
    18:00 +10°C° 0.2 mm 2 m/s 598 mmHg 39%
    19:00 +9°C° 0.2 mm 2 m/s 598 mmHg 47%
    20:00 +9°C° 0.2 mm 1 m/s 598 mmHg 54%
    21:00 +8°C° 0.7 mm 2 m/s 598 mmHg 58%
    22:00 +7°C° 0.7 mm 2 m/s 598 mmHg 62%
    23:00 +7°C° 0.7 mm 2 m/s 597 mmHg 65%

    22 Novembre, Jeudi

    Heure Température Précipitation Vent Pression Humidité
    00:00 +6°C° 0.8 mm 2 m/s 597 mmHg 69%
    01:00 +5°C° 0.8 mm 2 m/s 597 mmHg 73%
    02:00 +4°C° 0.8 mm 3 m/s 596 mmHg 77%
    03:00 +5°C° 0.4 mm 2 m/s 596 mmHg 78%
    04:00 +5°C° 0.4 mm 2 m/s 596 mmHg 78%
    05:00 +5°C° 0.4 mm 2 m/s 595 mmHg 79%
    06:00 +5°C° 0.8 mm 2 m/s 596 mmHg 80%
    07:00 +5°C° 0.8 mm 2 m/s 596 mmHg 82%
    08:00 +4°C° 0.8 mm 3 m/s 596 mmHg 83%
    09:00 +4°C° 1.5 mm 3 m/s 597 mmHg 85%
    10:00 +3°C° 1.5 mm 3 m/s 597 mmHg 86%
    11:00 +4°C° 1.5 mm 2 m/s 597 mmHg 88%
    12:00 +5°C° 0.2 mm 2 m/s 597 mmHg 86%
    13:00 +5°C° 0.2 mm 2 m/s 596 mmHg 85%
    14:00 +6°C° 0.2 mm 2 m/s 596 mmHg 83%
    15:00 +6°C° 0.1 mm 2 m/s 596 mmHg 83%
    16:00 +6°C° 0.1 mm 1 m/s 596 mmHg 82%
    17:00 +6°C° 0.1 mm 1 m/s 596 mmHg 82%
    18:00 +6°C° 0 mm 1 m/s 596 mmHg 82%
    19:00 +5°C° 0 mm 1 m/s 597 mmHg 83%
    20:00 +5°C° 0 mm 1 m/s 597 mmHg 83%
    21:00 +4°C° 0 mm 1 m/s 597 mmHg 83%
    22:00 +4°C° 0 mm 1 m/s 597 mmHg 83%
    23:00 +4°C° 0 mm 1 m/s 597 mmHg 83%
    Voir plus